Regional Weather Roundup
Issued by NWS

Home | Current Version | Previous Version | Graphics & Text | Print | Product List | Glossary Off
Versions: 1 2 3 4 5 6 7 8 9 10 11 12 13 14 15 16 17 18 19 20 21 22 23 24 25 26 27 28 29 30 31 32 33 34 35 36 37 38 39 40 41 42 43 44 45 46 47 48 49 50

000
ASUS43 KTOP 270459
RWRKS

WEATHER ROUNDUP FOR KANSAS
NATIONAL WEATHER SERVICE GOODLAND KS
1200 AM CDT WED MAY 27 2015

NOTE:  "FAIR" INDICATES FEW OR NO CLOUDS BELOW 12,000 FEET WITH NO
SIGNIFICANT WEATHER AND/OR OBSTRUCTIONS TO VISIBILITY.

KSZ001>006-013>018-027>032-041>047-270600-
NORTHWEST KANSAS

CITY           SKY/WX    TMP DP  RH WIND       PRES   REMARKS
GOODLAND       CLEAR     54  51  90 SE6       30.06R
HAYS           CLEAR     57  48  72 CALM      30.03R
HILL CITY      CLEAR     54  50  86 CALM      30.03R
RUSSELL        CLEAR     59  53  80 E6        30.01S
$$

KSZ061>065-074>080-084>089-270600-
SOUTHWEST KANSAS

CITY           SKY/WX    TMP DP  RH WIND       PRES   REMARKS
DODGE CITY     CLEAR     62  55  77 SE6       30.03R
ELKHART          N/A     60  54  80 SE7         N/A
GARDEN CITY    MOCLDY    62  55  77 E8        30.04R
GREAT BEND     MOCLDY    63  54  72 E3        30.01S
LIBERAL        MOCLDY    66  55  68 E8        30.05S
$$

KSZ066>073-081>083-090>101-270600-
SOUTHEAST KANSAS

CITY           SKY/WX    TMP DP  RH WIND       PRES   REMARKS
CHANUTE        MOCLDY    65  64  97 CALM      29.98R
COFFEYVILLE    CLOUDY    65  64  97 N6        29.96S
HUTCHINSON     PTCLDY    66  56  70 N8        29.99S
NEWTON         PTCLDY    64  57  77 SW3       30.01S
PARSONS        CLOUDY    65  64  97 CALM      29.99R
WICHITA INTL   PTCLDY    63  60  90 S5        29.99R
WICHITA JABRA  FAIR      64  61  90 S7        29.99R
WINFIELD       CLOUDY    68  63  84 CALM      29.99R
$$

KSZ007>012-019>026-033>040-048>060-102>105-270600-
NORTHEAST KANSAS

CITY           SKY/WX    TMP DP  RH WIND       PRES   REMARKS
CONCORDIA      PTCLDY    60  53  77 W6        30.00S
EMPORIA        PTCLDY    63  59  87 W5        29.97S
LAWRENCE       PTCLDY    62  59  90 CALM      29.96R
MANHATTAN      PTCLDY    59  57  93 CALM      29.98S
OLATHE IND     MOCLDY    67  61  81 SW8       29.96S
OLATHE EXE     MOCLDY    66  62  87 CALM      29.95S
SALINA         CLEAR     63  55  75 NW6       29.99F
TOPEKA BILLARD MOCLDY    65  59  81 W5        29.96S
TOPEKA FORBES  CLEAR     63  58  83 SW6       29.97R
$$


USA.gov is the U.S. government's official web portal to all federal, state and local government web resources and services.